TimeCST,TemperatureF,Dew PointF,Humidity,Sea Level PressureIn,VisibilityMPH,Wind Direction,Wind SpeedMPH,Gust SpeedMPH,PrecipitationIn,Events,Conditions,WindDirDegrees,DateUTC
12:53 AM,15.1,10.0,80,30.00,10.0,SSW,8.1,-,0.00,,Clear,210,2012-12-11 06:53:00
1:53 AM,16.0,9.0,74,29.99,10.0,South,8.1,-,N/A,,Clear,190,2012-12-11 07:53:00
2:53 AM,17.1,10.0,74,29.99,10.0,South,8.1,-,N/A,,Clear,190,2012-12-11 08:53:00
3:53 AM,17.1,10.9,77,29.97,10.0,South,10.4,-,N/A,,Clear,190,2012-12-11 09:53:00
4:53 AM,16.0,10.0,77,29.99,10.0,SSW,6.9,-,N/A,,Clear,210,2012-12-11 10:53:00
5:53 AM,19.9,12.0,71,29.98,10.0,SW,9.2,-,N/A,,Overcast,220,2012-12-11 11:53:00
6:53 AM,18.0,10.9,74,29.99,10.0,SSW,6.9,-,N/A,,Clear,210,2012-12-11 12:53:00
7:53 AM,19.9,12.9,74,30.02,10.0,SW,6.9,-,N/A,,Overcast,220,2012-12-11 13:53:00
8:53 AM,21.9,14.0,72,30.03,10.0,WSW,8.1,-,N/A,,Overcast,240,2012-12-11 14:53:00
9:53 AM,27.0,18.0,69,30.05,10.0,WSW,10.4,-,0.00,,Clear,250,2012-12-11 15:53:00
10:53 AM,32.0,19.0,59,30.04,10.0,West,9.2,-,N/A,,Clear,270,2012-12-11 16:53:00
11:53 AM,35.1,19.0,52,30.04,9.0,West,8.1,-,0.00,,Clear,260,2012-12-11 17:53:00
12:53 PM,37.9,19.0,47,30.03,10.0,WSW,5.8,-,N/A,,Clear,250,2012-12-11 18:53:00
1:53 PM,39.0,19.0,45,30.01,10.0,WSW,10.4,18.4,N/A,,Clear,250,2012-12-11 19:53:00
2:53 PM,39.9,19.0,43,30.01,10.0,WSW,16.1,-,N/A,,Clear,240,2012-12-11 20:53:00
3:53 PM,39.0,19.0,45,30.02,10.0,WSW,10.4,-,N/A,,Clear,250,2012-12-11 21:53:00
4:53 PM,37.0,19.9,50,30.04,10.0,SSW,8.1,-,N/A,,Overcast,210,2012-12-11 22:53:00
5:53 PM,36.0,19.9,52,30.06,10.0,SSW,8.1,-,N/A,,Overcast,200,2012-12-11 23:53:00
6:53 PM,33.1,19.9,59,30.07,10.0,SSW,8.1,-,N/A,,Mostly Cloudy,200,2012-12-12 00:53:00
7:53 PM,30.0,19.0,64,30.08,10.0,South,8.1,-,0.00,,Clear,190,2012-12-12 01:53:00
8:53 PM,28.0,19.0,69,30.10,10.0,South,8.1,-,N/A,,Clear,180,2012-12-12 02:53:00
9:53 PM,26.1,18.0,71,30.11,10.0,South,6.9,-,N/A,,Clear,180,2012-12-12 03:53:00
10:53 PM,26.1,18.0,71,30.12,10.0,South,8.1,-,N/A,,Clear,180,2012-12-12 04:53:00
11:53 PM,26.1,18.0,71,30.12,10.0,South,6.9,-,N/A,,Clear,190,2012-12-12 05:53:00